CAPE
0 0 0 0 0 0 0 0 0 0 0 0 0 0 0 0 0 0 0 0 0 0
0 0 0 0 0 0 0 0 0 0 0 0 0 0 0 0 0 0 0 0 0 0
0 0 0 0 0 0 0 0 0 0 0 0 0 0 0 0 0 0 0 0 0 0
0 0 0 0 0 0 0 0 0 0 0 0 0 0 0 0 0 0 0 0 0 0
0 0 0 0 0 0 0 0 0 0 0 0 0 0 0 0 0 0 0 0 0 0
0 0 0 0 0 0 0 0 0 0 0 0 0 0 0 0 0 0 0 0 0 0
0 0 0 0 0 0 0 0 0 0 0 0 0 0 0 0 0 0 0 0 0 0
0 0 0 0 0 0 0 0 0 0 0 0 0 0 0 0 0 0 0 0 0 0
0 0 0 0 0 0 0 0 0 0 0 0 0 0 0 0 0 0 0 0 0 0
0 0 0 0 0 0 0 0 0 0 0 0 0 0 0 0 0 0 0 0 0 0
0 0 0 0 0 0 0 0 0 0 0 0 0 0 0 0 0 0 0 0 0 0
0 0 0 0 0 0 0 0 0 0 0 0 0 0 0 0 0 0 0 0 0 0
0 0 0 0 0 0 0 0 0 0 0 0 0 0 0 0 0 0 0 0 0 0
0 0 0 0 0 0 0 0 0 0 0 0 0 0 0 0 0 0 0 0 0 0
CIN
0 0 0 0 0 0 0 0 0 0 0 0 0 0 0 0 0 0 0 0 0 0
0 0 0 0 0 0 0 0 0 0 0 0 0 0 0 0 0 0 0 0 0 0
0 0 0 0 0 0 0 0 0 0 0 0 0 0 0 0 0 0 0 0 0 0
0 0 0 0 0 0 0 0 0 0 0 0 0 0 0 0 0 0 0 0 0 0
0 0 0 0 0 0 0 0 0 0 0 0 0 0 0 0 0 0 0 0 0 0
0 0 0 0 0 0 0 0 0 0 0 0 0 0 0 0 0 0 0 0 0 0
0 0 0 0 0 0 0 0 0 0 0 0 0 0 0 0 0 0 0 0 0 0
0 0 0 0 0 0 0 0 0 0 0 0 0 0 0 0 0 0 0 0 0 0
0 0 0 0 0 0 0 0 0 0 0 0 0 0 0 0 0 0 0 0 0 0
0 0 0 0 0 0 0 0 0 0 0 0 0 0 0 0 0 0 0 0 0 0
0 0 0 0 0 0 0 0 0 0 0 0 0 0 0 0 0 0 0 0 0 0
0 0 0 0 0 0 0 0 0 0 0 0 0 0 0 0 0 0 0 0 0 0
0 0 0 0 0 0 0 0 0 0 0 0 0 0 0 0 0 0 0 0 0 0
0 0 0 0 0 0 0 0 0 0 0 0 0 0 0 0 0 0 0 0 0 0
Wind_Speed
30 31 31 31 28 27 28 27 26 27 28 27 27 27 26 27 26 25 23 22 21 21
31 30 29 28 28 28 28 29 28 27 29 28 28 28 27 27 26 25 24 23 22 21
34 33 31 27 26 25 28 27 29 30 31 31 30 30 30 29 26 25 24 24 23 22
37 35 34 32 32 30 28 28 30 32 33 34 33 33 34 32 29 28 26 25 24 23
39 38 38 38 37 36 35 32 32 31 32 32 35 35 37 37 33 32 30 28 26 25
43 42 42 42 42 41 41 40 39 37 37 36 35 35 36 37 36 35 33 30 28 27
45 45 45 45 45 44 43 43 41 40 40 38 36 37 37 38 39 37 36 34 32 30
47 47 47 47 47 46 46 47 44 42 40 39 39 39 39 40 40 41 40 38 36 35
50 51 51 51 51 50 50 50 48 44 42 43 42 40 39 39 41 41 42 42 39 37
52 55 54 53 54 52 51 48 46 47 45 45 46 44 42 40 39 40 41 41 42 40
54 56 55 54 54 53 49 48 46 45 46 49 48 46 44 42 41 40 40 41 41 41
56 58 55 56 56 56 55 52 48 46 46 48 49 47 44 42 41 45 44 42 42 41
58 59 60 58 58 57 55 55 51 48 45 46 45 43 39 40 43 48 45 44 42 41
60 61 61 61 60 60 58 56 55 53 48 46 44 42 39 38 40 46 47 44 42 39
Wind_Direction
294 289 286 282 277 269 265 258 252 245 245 246 244 245 247 252 256 258 261 265 272 278
298 293 289 286 280 277 272 268 262 250 247 244 243 242 242 247 250 255 260 265 268 273
301 294 291 289 282 277 274 271 266 259 254 250 246 245 245 249 250 250 257 262 263 269
302 299 295 289 284 281 278 273 268 263 259 256 250 247 248 251 250 248 253 257 259 262
307 302 295 291 286 282 278 276 272 267 263 257 254 251 249 251 252 248 249 252 255 257
308 305 300 293 288 284 281 276 274 270 266 261 257 254 251 250 251 250 251 250 249 251
305 304 302 298 293 288 284 281 278 273 269 264 260 258 255 252 251 250 251 251 250 250
301 301 301 300 298 294 288 283 281 278 274 268 263 259 257 255 254 253 253 253 252 252
304 302 299 300 299 299 295 289 284 280 276 271 267 263 257 256 257 256 254 253 253 254
306 303 304 304 299 299 298 295 289 281 277 273 270 267 262 256 257 256 255 254 254 254
307 305 303 301 301 299 299 296 293 288 281 275 273 268 264 260 259 258 257 256 253 252
303 302 302 301 299 297 294 293 293 291 287 279 275 271 266 261 258 261 259 256 255 252
301 299 299 299 297 295 295 291 290 290 288 284 281 275 269 260 263 264 261 258 256 251
299 297 296 295 294 292 292 292 288 285 286 285 283 279 272 263 260 261 261 260 258 253